Location: Unspecified
(0.0000°N, 0.0000°E)
Time: 07:42:22
(UTC+00:00)

Courier 1B - Pass Details

Date: 29 September 2023
Orbit: 962 x 1208 km, 28.3° (Epoch: 06 December)

Event Time Altitude Azimuth Distance (km) Brightness Sun altitude
Rises 21:29:45 0° 280° (W) 3,953 11.2 -54.8°
Enters shadow 21:32:29 - 272° (W) 3,081 10.5 -55.5°
Reaches altitude 10° 21:32:54 10° 271° (W) 2,954 - -55.6°
Maximum altitude 21:39:15 33° 209° (SSW) 1,701 - -57.2°
Drops below altitude 10° 21:45:16 10° 147° (SSE) 2,798 - -58.7°
Sets 21:48:12 0° 137° (SE) 3,716 - -59.4°
